Regional Weather Roundup
Issued by NWS

Home | Current Version | Previous Version | Text Only | Print | Product List | Glossary On
Versions: 1 2 3 4 5 6 7 8 9 10 11 12 13 14 15 16 17 18 19 20 21 22 23 24 25 26 27
000
ASUS45 KBOU 281607
RWRCO

WEATHER ROUNDUP FOR COLORADO
NATIONAL WEATHER SERVICE DENVER/BOULDER CO
1000 AM MDT SUN AUG 28 2016

NOTE: "FAIR" INDICATES FEW OR NO CLOUDS BELOW 12000 FEET WITH NO
SIGNIFICANT WEATHER AND/OR OBSTRUCTIONS TO VISIBILITY.

COZ001>005-013-030-031-281700-
...NORTHWEST COLORADO...

CITY           SKY/WX    TMP DP  RH WIND       PRES   REMARKS
CRAIG          FAIR      66  38  35 NE6       30.30F
HAYDEN         FAIR      63  36  36 E7        30.32F
MEEKER         FAIR      64  42  44 CALM      30.32S
MOUNT WERNER   NOT AVBL
STEAMBOAT SPGS FAIR      57  38  47 CALM      30.34S
WALDEN         FAIR      55  34  44 CALM      30.42S
$$

COZ006>008-011-281700-
...WEST CENTRAL VALLEYS...

CITY           SKY/WX    TMP DP  RH WIND       PRES   REMARKS
GRAND JUNCTION FAIR      64  50  60 CALM      30.26R
MONTROSE       CLOUDY    62  47  57 S5        30.32R
EAGLE          SUNNY     59  41  51 E5        30.37S
RIFLE          FAIR      60  49  66 NE3       30.30S
DELTA          NOT AVBL
NUCLA          CLOUDY   N/A N/A N/A NW3       30.38R
$$

COZ017>023-064>068-281700-
...SOUTHWEST COLORADO...

CITY           SKY/WX    TMP DP  RH WIND       PRES   REMARKS
DURANGO        FAIR      61  46  57 NE3       30.35S
CORTEZ         FAIR      63  51  65 SW5       30.31S
PAGOSA SPRINGS FAIR      59  42  54 CALM      30.41F
TELLURIDE      FAIR      53  43  67 SW5       30.49S
WOLF CREEK PAS FAIR      41  37  87 S10G17    30.64S
$$

COZ009-010-012-014-032>034-037-058>063-281700-
...CENTRAL COLORADO...

CITY           SKY/WX    TMP DP  RH WIND       PRES   REMARKS
ASPEN          PTSUNNY   57  43  59 CALM      30.39S
BUENA VISTA    CLOUDY    55  43  62 CALM      30.41R
COPPER MTN     LGT RAIN  45  34  65 E5        30.63R
BERTHOUD PASS  CLOUDY    41  28  60 E7        30.66R
COTTONWOOD PAS CLOUDY    55  37  50 E5        30.51S
GUNNISON       PTSUNNY   52  43  71 CALM      30.44S
KREMMLING      FAIR      54  36  50 S3        30.41S
LEADVILLE      LGT RAIN  45  38  76 S6        30.50R
MONARCH PASS   CLOUDY    43  36  75 E5        30.72S
SALIDA         CLOUDY    61  43  52 N3        30.45F
SUNLIGHT       FAIR      48  41  76 SE6       30.59R
WILKERSON PASS CLOUDY    45  36  70 CALM      30.61S
$$

COZ069>075-281700-
...SAN LUIS VALLEY/SANGRE DE CRISTO MOUNTAINS...

CITY           SKY/WX    TMP DP  RH WIND       PRES   REMARKS
ALAMOSA        FAIR      60  44  55 VRB5      30.38F
LA VETA PASS   FAIR      54  41  62 SW6       30.50S
SAGUACHE       FAIR      59  41  51 CALM      30.41S
$$

COZ035-036-038>040-281700-
...NORTHERN COLORADO FRONT RANGE...

CITY           SKY/WX    TMP DP  RH WIND       PRES   REMARKS
DENVER INTL AP PTSUNNY   76  39  26 NW8       30.19S
DMNS CITY PARK   N/A     69  46  43 S9        30.19S
AURORA         PTSUNNY   75  42  30 NW5       30.21R
FRONT RANGE AP PTSUNNY   79  36  21 NW15      30.20
ERIE MUNI ARPT   N/A     74  38  26 CALM      30.18
BOULDER MUN AP FAIR      72  41  33 CALM      30.19F
CENTENNIAL     PTSUNNY   73  39  29 W8        30.22R
BROOMFIELD     MOSUNNY   73  37  27 S6        30.22S
FORT COLLINS   FAIR      70  43  37 SW7       30.18S
LONGMONT       FAIR      76  41  28 SE3       30.19F
$$

COZ041-046-047-076>085-087-088-281700-
...PIKES PEAK/PALMER DIVIDE AND SOUTHERN FOOTHILLS...

CITY           SKY/WX    TMP DP  RH WIND       PRES   REMARKS
COLO. SPRINGS  FAIR      74  48  39 NW9       30.24F
A. F. ACADEMY  FAIR      72  40  32 N9        30.25F
SCHRIEVER AFB  NOT AVBL
ELLICOTT       NOT AVBL
FALCON         FAIR      73  40  30 NW3       30.29S
FORT CARSON    FAIR      72  48  43 N6        30.21F
LIMON          FAIR      75  51  43 VRB3      30.19S
MONUMENT HILL  FAIR      70  39  32 NW7       30.31S
TRINIDAD       FAIR      74  46  36 W16       30.21S
$$

COZ042>045-048>051-090-091-281700-
...NORTHEAST COLORADO...

CITY           SKY/WX    TMP DP  RH WIND       PRES   REMARKS
GREELEY ARPT   FAIR      70  52  52 W7        30.17F
AKRON          FAIR      80  51  36 SW10      30.14S
BURLINGTON     FAIR      73  53  49 S10       30.14S
WRAY           NOT AVBL
STERLING       FAIR      73  59  60 CALM      30.11S
HOLYOKE        FAIR      79  59  50 S6        30.11S
FORT MORGAN    FAIR      74  47  38 W7        30.15S
$$

COZ086-089-092>099-281700-
...SOUTHEAST COLORADO...

CITY           SKY/WX    TMP DP  RH WIND       PRES   REMARKS
PUEBLO         FAIR      73  55  53 W8        30.15F
LA JUNTA       FAIR      77  55  46 W8        30.13S
LAMAR          FAIR      76  59  55 MISG      30.09F
SPRINGFIELD      N/A     70  59  68 S14       30.14F
$$




USA.gov is the U.S. government's official web portal to all federal, state and local government web resources and services.